Date String (YYYY-MM-DD hh:mm:ss) UTC,Instrument flags,absolute air pressure of the measurement (hPa),sample flow rate (lpm),inlet stack bypass flow (lpm),air temperature of the measurement (°C),ambient temperature measured by the external sensor (°C),aerosol sample conditioner tube jacket temperature (°C),OPC LED temperature (°C),internal box temperature (°C),relative humidity of the measurement (%),span deviation,mass concentration of particles derived from Lorenz-Mie calculation of OPC scattering (μg/m³),mass concentration of particles derived from Lorenz-Mie calculation of OPC scattering (μg/m³),mass concentration of particles derived from Lorenz-Mie calculation of OPC scattering (μg/m³)
DateTimeUTC,F1_M11,P_M11,Q1_M11,Q2_M11,T1_M11,T2_M11,T3_M11,T4_M11,T5_M11,U1_M11,ZSPAN_M11,X0_M11,X2_M11,X1_M11
2024-02-15 18:00:00,SystemResetWarning,0825.7,5.00,000.00,018.3,017.7,000.0,026.8,020.0,24.0,0001.0,0015.14,0008.85,0008.45
2024-02-15 18:01:00,SystemResetWarning,0825.7,4.99,000.00,018.3,017.7,000.0,026.8,020.0,24.1,0001.1,0014.28,0008.89,0008.45
2024-02-15 18:02:00,SystemResetWarning,0825.7,5.00,000.00,018.3,017.8,000.0,026.8,020.0,24.0,0001.1,0014.14,0008.88,0008.43
2024-02-15 18:03:00,SystemResetWarning,0825.5,5.00,000.00,018.3,017.8,000.0,026.8,020.0,24.0,0001.1,0013.94,0008.86,0008.41
2024-02-15 18:04:00,SystemResetWarning,0825.2,5.01,000.00,018.3,017.8,000.0,026.8,020.0,23.6,0001.3,0014.07,0008.88,0008.42
2024-02-15 18:05:00,SystemResetWarning,0825.0,5.00,000.00,018.3,017.8,000.0,026.8,020.0,23.5,0001.3,0013.72,0008.88,0008.42
2024-02-15 18:06:00,SystemResetWarning,0825.1,5.01,000.00,018.3,017.8,000.0,026.8,020.0,23.3,0001.1,0013.32,0008.90,0008.43
2024-02-15 18:07:00,SystemResetWarning,0825.1,5.00,000.00,018.3,017.8,000.0,026.8,020.0,23.4,0001.3,0013.09,0008.90,0008.43
2024-02-15 18:08:00,SystemResetWarning,0825.3,5.00,000.00,018.3,017.9,000.0,026.7,020.0,23.5,0001.1,0012.99,0008.86,0008.40
2024-02-15 18:09:00,SystemResetWarning,0825.4,4.99,000.00,018.3,017.9,000.0,026.7,020.0,23.8,0001.0,0012.52,0008.87,0008.40
2024-02-15 18:10:00,SystemResetWarning,0825.5,5.00,000.00,018.3,017.9,000.0,026.7,020.0,23.9,0001.0,0011.68,0008.86,0008.40
2024-02-15 18:11:00,SystemResetWarning,0825.6,4.99,000.00,018.3,017.9,000.0,026.7,020.1,24.4,0000.9,0011.50,0008.82,0008.39
2024-02-15 18:12:00,SystemResetWarning,0825.7,5.00,000.00,018.3,017.9,000.0,026.8,020.1,24.2,0001.0,0011.66,0008.79,0008.39
2024-02-15 18:13:00,SystemResetWarning,0825.8,5.01,000.00,018.3,017.9,000.0,026.8,020.1,24.1,0000.8,0011.99,0008.78,0008.40
2024-02-15 18:14:00,SystemResetWarning,0825.8,5.01,000.00,018.3,018.0,000.0,026.7,020.1,24.2,0000.5,0012.00,0008.79,0008.41
2024-02-15 18:15:00,SystemResetWarning,0825.6,5.01,000.00,018.3,018.0,000.0,026.8,020.1,24.4,0000.6,0011.85,0008.76,0008.40
2024-02-15 18:16:00,SystemResetWarning,0825.5,5.00,000.00,018.3,018.0,000.0,026.8,020.1,24.5,0000.9,0011.98,0008.76,0008.41
2024-02-15 18:17:00,SystemResetWarning,0825.3,5.00,000.00,018.4,018.0,000.0,026.8,020.1,24.3,0001.4,0012.00,0008.75,0008.41
2024-02-15 18:18:00,SystemResetWarning,0825.2,5.00,000.00,018.4,018.0,000.0,026.8,020.1,23.9,0001.4,0011.97,0008.75,0008.42
2024-02-15 18:19:00,SystemResetWarning,0825.3,5.00,000.00,018.4,018.0,000.0,026.8,020.1,23.4,0001.7,0012.00,0008.76,0008.43
2024-02-15 18:20:00,SystemResetWarning,0825.5,5.00,000.00,018.4,018.0,000.0,026.8,020.2,23.7,0001.9,0011.94,0008.73,0008.41
2024-02-15 18:21:00,SystemResetWarning,0825.5,5.00,000.00,018.4,018.0,000.0,026.8,020.2,23.4,0002.2,0011.91,0008.70,0008.40
2024-02-15 18:22:00,SystemResetWarning,0825.5,4.99,000.00,018.4,018.0,000.0,026.8,020.2,23.4,0002.5,0011.92,0008.70,0008.40
2024-02-15 18:23:00,SystemResetWarning,0825.4,5.00,000.00,018.4,018.1,000.0,026.8,020.2,23.6,0002.4,0011.76,0008.68,0008.39
2024-02-15 18:24:00,SystemResetWarning,0825.2,5.00,000.00,018.4,018.1,000.0,026.8,020.2,23.1,0002.3,0011.34,0008.69,0008.39
2024-02-15 18:25:00,SystemResetWarning,0825.2,5.00,000.00,018.4,018.1,000.0,026.8,020.2,23.1,0002.7,0011.40,0008.71,0008.39
2024-02-15 18:26:00,SystemResetWarning,0825.1,5.00,000.00,018.4,018.1,000.0,026.8,020.2,22.8,0002.7,0011.40,0008.72,0008.39
2024-02-15 18:27:00,SystemResetWarning,0825.2,5.00,000.00,018.4,018.1,000.0,026.8,020.2,22.8,0002.4,0011.25,0008.71,0008.37
2024-02-15 18:28:00,SystemResetWarning,0825.2,5.00,000.00,018.5,018.1,000.0,026.8,020.3,23.1,0002.3,0011.16,0008.71,0008.35
2024-02-15 18:29:00,SystemResetWarning,0825.2,5.00,000.00,018.5,018.1,000.0,026.8,020.3,23.3,0002.3,0011.15,0008.70,0008.35
2024-02-15 18:30:00,SystemResetWarning,0825.2,5.00,000.00,018.5,018.2,000.0,026.9,020.3,23.4,0002.1,0012.05,0008.71,0008.36
2024-02-15 18:31:00,SystemResetWarning,0825.1,5.00,000.00,018.5,018.2,000.0,026.9,020.3,22.9,0002.0,0012.10,0008.72,0008.36
2024-02-15 18:32:00,SystemResetWarning,0824.9,5.00,000.00,018.5,018.2,000.0,026.9,020.3,23.0,0001.8,0012.11,0008.73,0008.36
2024-02-15 18:33:00,SystemResetWarning,0824.9,5.00,000.00,018.5,018.2,000.0,026.9,020.3,22.9,0001.5,0012.12,0008.72,0008.36
2024-02-15 18:34:00,SystemResetWarning,0825.0,5.00,000.00,018.5,018.2,000.0,026.9,020.3,22.8,0001.5,0012.17,0008.72,0008.37
2024-02-15 18:35:00,SystemResetWarning,0825.1,5.00,000.00,018.5,018.2,000.0,026.9,020.3,22.8,0001.7,0012.69,0008.75,0008.40
2024-02-15 18:36:00,SystemResetWarning,0825.1,5.00,000.00,018.5,018.2,000.0,026.9,020.3,23.3,0001.3,0012.67,0008.74,0008.39
2024-02-15 18:37:00,SystemResetWarning,0825.0,4.99,000.00,018.6,018.2,000.0,026.9,020.3,23.4,0001.3,0012.91,0008.75,0008.40
2024-02-15 18:38:00,SystemResetWarning,0824.9,5.00,000.00,018.6,018.2,000.0,026.9,020.4,22.8,0001.7,0013.42,0008.79,0008.42
2024-02-15 18:39:00,SystemResetWarning,0824.8,5.00,000.00,018.6,018.3,000.0,026.9,020.4,22.7,0001.7,0013.57,0008.82,0008.44
2024-02-15 18:40:00,SystemResetWarning,0824.7,5.00,000.00,018.6,018.3,000.0,026.9,020.4,22.8,0002.0,0013.56,0008.80,0008.43
2024-02-15 18:41:00,SystemResetWarning,0824.7,5.00,000.00,018.6,018.3,000.0,026.9,020.4,22.6,0002.1,0013.23,0008.78,0008.42
2024-02-15 18:42:00,SystemResetWarning,0824.8,5.00,000.00,018.6,018.3,000.0,026.9,020.4,22.4,0002.1,0013.31,0008.78,0008.41
2024-02-15 18:43:00,SystemResetWarning,0824.8,5.00,000.00,018.6,018.3,000.0,027.0,020.4,22.7,0002.3,0013.30,0008.75,0008.40
2024-02-15 18:44:00,SystemResetWarning,0824.9,5.00,000.00,018.6,018.3,000.0,027.0,020.4,22.7,0002.4,0014.02,0008.76,0008.40
2024-02-15 18:45:00,SystemResetWarning,0824.9,5.00,000.00,018.6,018.3,000.0,027.0,020.4,22.7,0002.3,0013.92,0008.75,0008.38
2024-02-15 18:46:00,SystemResetWarning,0824.9,5.00,000.00,018.7,018.3,000.0,027.0,020.4,22.5,0002.3,0013.49,0008.74,0008.35
2024-02-15 18:47:00,SystemResetWarning,0824.9,5.00,000.00,018.7,018.3,000.0,027.0,020.4,22.1,0002.4,0013.42,0008.71,0008.34
2024-02-15 18:48:00,SystemResetWarning,0824.9,5.00,000.00,018.7,018.3,000.0,027.0,020.5,21.9,0002.2,0013.11,0008.67,0008.32
2024-02-15 18:49:00,SystemResetWarning,0824.8,4.99,000.00,018.7,018.3,000.0,027.0,020.5,21.9,0001.9,0012.67,0008.64,0008.30
2024-02-15 18:50:00,SystemResetWarning,0824.9,5.01,000.00,018.7,018.4,000.0,027.0,020.5,22.1,0001.4,0012.46,0008.57,0008.27
2024-02-15 18:51:00,SystemResetWarning,0825.0,5.00,000.00,018.7,018.4,000.0,027.0,020.5,22.3,0001.2,0012.36,0008.54,0008.27
2024-02-15 18:52:00,SystemResetWarning,0825.0,5.00,000.00,018.7,018.4,000.0,027.1,020.5,22.3,0000.8,0012.74,0008.54,0008.27
2024-02-15 18:53:00,SystemResetWarning,0824.9,5.00,000.00,018.8,018.4,000.0,027.1,020.5,22.4,0000.9,0012.37,0008.53,0008.26
2024-02-15 18:54:00,SystemResetWarning,0824.8,5.00,000.00,018.8,018.4,000.0,027.1,020.6,22.2,0000.9,0012.36,0008.53,0008.25
2024-02-15 18:55:00,SystemResetWarning,0824.8,5.00,000.00,018.8,018.4,000.0,027.1,020.6,22.2,0000.8,0011.82,0008.52,0008.23
2024-02-15 18:56:00,SystemResetWarning,0824.7,5.00,000.00,018.8,018.5,000.0,027.1,020.6,22.2,0000.7,0011.64,0008.51,0008.22
2024-02-15 18:57:00,SystemResetWarning,0824.7,5.00,000.00,018.8,018.5,000.0,027.1,020.6,21.8,0000.2,0011.51,0008.46,0008.19
2024-02-15 18:58:00,SystemResetWarning,0824.7,5.00,000.00,018.8,018.5,000.0,027.1,020.6,21.6,-000.0,0011.44,0008.43,0008.16
2024-02-15 18:59:00,SystemResetWarning,0824.7,5.00,000.00,018.8,018.5,000.0,027.1,020.6,21.6,0000.4,0011.49,0008.44,0008.15
